This demonstration page uses our WeatherBlox Daily Observations layout. Learn more.

Left ArrowRight Arrow

39.92423, -83.80882

Hourly Observations for March 25, 2021

Temp ( °F °C ) Dew Point ( °F °C ) Humidity (%) Winds ( mph kmh ) Pressure ( in mb ) Visibility ( mi km ) Precip ( " mm )
12:56 am 00:56 Clear 56 13.3 46 7.8 70 70 WNW 8 13 29.93 1013 10 16 N/A
1:56 am 01:56 Clear 52 11.1 46 7.8 80 80 N N/A 29.94 1014 10 16 N/A
2:56 am 02:56 Clear 50 10 46 7.8 86 86 N N/A 29.94 1014 10 16 N/A
3:56 am 03:56 Clear 44 6.7 44 6.7 100 100 N N/A 29.94 1014 10 16 N/A
4:56 am 04:56 Clear 42 5.6 42 5.6 100 100 E 5 7 29.92 1013 10 16 N/A
5:56 am 05:56 Clear 42 5.6 42 5.6 100 100 ESE 7 11 29.94 1014 10 16 N/A
6:56 am 06:56 Clear 43 6.1 43 6.1 100 100 E 5 7 29.97 1015 10 16 N/A
7:56 am 07:56 Sunny 42 5.6 42 5.6 100 100 E 5 7 29.97 1015 10 16 N/A
8:56 am 08:56 Sunny 48 8.9 48 8.9 100 100 E 5 7 29.96 1015 10 16 N/A
9:56 am 09:56 Sunny 55 12.8 51 10.6 87 87 ESE 7 11 29.97 1015 10 16 N/A
10:56 am 10:56 Sunny 58 14.4 51 10.6 78 78 ESE 7 11 29.96 1015 10 16 N/A
11:56 am 11:56 Sunny 63 17.2 51 10.6 65 65 SE 8 13 29.94 1014 10 16 N/A
12:56 pm 12:56 Sunny 67 19.4 51 10.6 57 57 SE 9 15 29.89 1012 10 16 N/A
1:56 pm 13:56 Mostly Cloudy 68 20 50 10 53 53 SE 15 24 29.86 1011 10 16 N/A
2:30 pm 14:30 Cloudy with Rain 59 15 57 14 94 94 S 8 13 29.87 1012 7 11 N/A
2:56 pm 14:56 Cloudy with Rain 59 15 58 14.4 96 96 S 8 13 29.87 1012 10 16 N/A
3:56 pm 15:56 Cloudy with Light Rain 58 14.4 58 14.4 100 100 S 3 6 29.84 1011 10 16 N/A
4:56 pm 16:56 Cloudy 59 15 59 15 100 100 ENE 5 7 29.81 1010 10 16 N/A
5:04 pm 17:04 Cloudy 61 16 61 16 100 100 ENE 6 9 29.79 1009 10 16 N/A
5:56 pm 17:56 Mostly Cloudy 60 15.6 60 15.6 100 100 ESE 14 22 29.72 1007 10 16 N/A
6:42 pm 18:42 Cloudy 61 16 61 16 100 100 ESE 8 13 29.73 1007 10 16 N/A
6:56 pm 18:56 Cloudy 60 15.6 60 15.6 100 100 ESE 7 11 29.75 1008 10 16 N/A
7:10 pm 19:10 Cloudy 61 16 61 16 100 100 SE 8 13 29.73 1007 10 16 N/A
7:56 pm 19:56 Cloudy 60 15.6 60 15.6 100 100 SE 9 15 29.71 1006 10 16 N/A
8:10 pm 20:10 Cloudy 61 16 61 16 100 100 SE 12 19 29.68 1005 10 16 N/A
8:56 pm 20:56 Cloudy 59 15 59 15 100 100 SE 9 15 29.68 1005 10 16 N/A
9:16 pm 21:16 Cloudy with Nearby Thunderstorms 59 15 59 15 100 100 ESE 9 15 29.64 1004 7 11 N/A
9:52 pm 21:52 Cloudy with Light Rain 59 15 59 15 100 100 ESE 10 17 29.62 1003 10 16 N/A
9:56 pm 21:56 Cloudy with Light Rain 59 15 59 15 100 100 ESE 12 19 29.62 1003 10 16 N/A
10:56 pm 22:56 Cloudy 60 15.6 60 15.6 100 100 SSE 17 28 29.57 1002 10 16 N/A
11:21 pm 23:21 Cloudy 61 16 61 16 100 100 SSE 18 30 29.54 1000 10 16 N/A
11:41 pm 23:41 Cloudy 63 17 63 17 100 100 S 17 28 29.53 1000 10 16 N/A
11:56 pm 23:56 Cloudy 62 16.7 62 16.7 100 100 SSE 18 30 29.52 1000 10 16 N/A

Powered by AerisWeather